| time (UTC) | temp F | wind direction | speed MPH | gust MPH | rain 1hr in | rain 24hr in | rain mn in | humidity % | barometer mb |
| 20260906184745 | 81 | 58 | 6.0 | 14.0 | 0.00 | 0.00 | 0.00 | 51 | 1013.6 |
| 20260906183212 | 82 | 102 | 4.0 | 12.0 | 0.00 | 0.00 | 0.00 | 49 | 1013.7 |
| 20260906182156 | 82 | 54 | 4.0 | 12.0 | 0.00 | 0.00 | 0.00 | 51 | 1013.8 |
| 20260906180110 | 81 | 52 | 7.0 | 13.0 | 0.00 | 0.00 | 0.00 | 53 | 1013.6 |
| 20260906175610 | 81 | 86 | 2.0 | 11.0 | 0.00 | 0.00 | 0.00 | 52 | 1014.0 |
| 20260906175110 | 81 | 341 | 4.0 | 13.0 | 0.00 | 0.00 | 0.00 | 51 | 1013.9 |
| 20260906174609 | 81 | 24 | 5.0 | 13.0 | 0.00 | 0.00 | 0.00 | 55 | 1013.5 |
| 20260906174109 | 80 | 11 | 3.0 | 13.0 | 0.00 | 0.00 | 0.00 | 57 | 1014.0 |
| 20260906173608 | 80 | 41 | 4.0 | 13.0 | 0.00 | 0.00 | 0.00 | 58 | 1013.9 |
| 20260906173107 | 81 | 29 | 4.0 | 12.0 | 0.00 | 0.00 | 0.00 | 57 | 1014.1 |
| 20260906172607 | 81 | 55 | 5.0 | 12.0 | 0.00 | 0.00 | 0.00 | 57 | 1014.0 |
| 20260906170521 | 81 | 63 | 5.0 | 11.0 | 0.00 | 0.00 | 0.00 | 57 | 1014.1 |
| 20260906170021 | 81 | 46 | 3.0 | 11.0 | 0.00 | 0.00 | 0.00 | 57 | 1013.9 |
| 20260906165006 | 79 | 12 | 2.0 | 12.0 | 0.00 | 0.00 | 0.00 | 58 | 1014.7 |
| 20260906164506 | 79 | 54 | 3.0 | 12.0 | 0.00 | 0.00 | 0.00 | 59 | 1014.7 |
| 20260906164006 | 79 | 49 | 5.0 | 12.0 | 0.00 | 0.00 | 0.00 | 59 | 1014.5 |
| 20260906162949 | 78 | 53 | 5.0 | 14.0 | 0.00 | 0.00 | 0.00 | 60 | 1014.4 |
| 20260906161417 | 78 | 40 | 6.0 | 14.0 | 0.00 | 0.00 | 0.00 | 60 | 1014.4 |
| 20260906160917 | 78 | 45 | 4.0 | 14.0 | 0.00 | 0.00 | 0.00 | 62 | 1014.6 |
| 20260906155901 | 78 | 58 | 5.0 | 13.0 | 0.00 | 0.00 | 0.00 | 62 | 1014.6 |
| 20260906155401 | 77 | 42 | 3.0 | 14.0 | 0.00 | 0.00 | 0.00 | 64 | 1014.4 |
| 20260906154901 | 77 | 57 | 4.0 | 14.0 | 0.00 | 0.00 | 0.00 | 63 | 1014.5 |
| 20260906154401 | 77 | 34 | 4.0 | 12.0 | 0.00 | 0.00 | 0.00 | 63 | 1014.3 |
| 20260906152829 | 76 | 36 | 5.0 | 12.0 | 0.00 | 0.00 | 0.00 | 66 | 1014.7 |
| 20260906152329 | 76 | 39 | 4.0 | 12.0 | 0.00 | 0.00 | 0.00 | 66 | 1014.4 |
| 20260906151313 | 75 | 77 | 4.0 | 13.0 | 0.00 | 0.00 | 0.00 | 68 | 1014.7 |
| 20260906150813 | 75 | 51 | 6.0 | 14.0 | 0.00 | 0.00 | 0.00 | 67 | 1014.9 |
| 20260906150312 | 75 | 36 | 5.0 | 14.0 | 0.00 | 0.00 | 0.00 | 66 | 1014.7 |
| 20260906145812 | 75 | 40 | 5.0 | 14.0 | 0.00 | 0.00 | 0.00 | 68 | 1014.4 |
| 20260906145311 | 74 | 68 | 6.0 | 14.0 | 0.00 | 0.00 | 0.00 | 68 | 1014.3 |
| 20260906144811 | 74 | 44 | 6.0 | 13.0 | 0.00 | 0.00 | 0.00 | 69 | 1014.3 |
| 20260906144311 | 74 | 65 | 6.0 | 12.0 | 0.00 | 0.00 | 0.00 | 70 | 1014.5 |
| 20260906143255 | 73 | 35 | 9.0 | 14.0 | 0.00 | 0.00 | 0.00 | 72 | 1014.4 |
| 20260906142754 | 73 | 79 | 4.0 | 13.0 | 0.00 | 0.00 | 0.00 | 74 | 1014.3 |
| 20260906142254 | 73 | 37 | 6.0 | 13.0 | 0.00 | 0.00 | 0.00 | 75 | 1014.4 |
| 20260906141237 | 72 | 110 | 3.0 | 13.0 | 0.00 | 0.00 | 0.00 | 76 | 1014.3 |
| 20260906140736 | 72 | 40 | 7.0 | 13.0 | 0.00 | 0.00 | 0.00 | 77 | 1014.4 |
| 20260906140236 | 72 | 40 | 5.0 | 12.0 | 0.00 | 0.00 | 0.00 | 78 | 1014.7 |
| 20260906135220 | 71 | 44 | 4.0 | 12.0 | 0.00 | 0.00 | 0.00 | 79 | 1014.3 |
| 20260906134205 | 71 | 37 | 7.0 | 15.0 | 0.00 | 0.00 | 0.00 | 79 | 1014.4 |
| 20260906133148 | 71 | 339 | 3.0 | 11.0 | 0.00 | 0.00 | 0.00 | 80 | 1014.6 |
| 20260906132648 | 70 | 52 | 5.0 | 11.0 | 0.00 | 0.00 | 0.00 | 80 | 1014.3 |
| 20260906132147 | 70 | 136 | 3.0 | 12.0 | 0.00 | 0.00 | 0.00 | 81 | 1014.5 |
| 20260906131647 | 70 | 90 | 4.0 | 12.0 | 0.00 | 0.00 | 0.00 | 81 | 1014.2 |
| 20260906131147 | 70 | 31 | 5.0 | 11.0 | 0.00 | 0.00 | 0.00 | 81 | 1014.2 |
| 20260906130647 | 70 | 21 | 4.0 | 11.0 | 0.00 | 0.00 | 0.00 | 82 | 1014.3 |
| 20260906130147 | 69 | 42 | 5.0 | 11.0 | 0.00 | 0.00 | 0.00 | 83 | 1014.0 |
| 20260906125647 | 69 | 42 | 4.0 | 11.0 | 0.00 | 0.00 | 0.00 | 83 | 1014.1 |
| 20260906125146 | 69 | 57 | 2.0 | 11.0 | 0.00 | 0.00 | 0.00 | 83 | 1014.0 |
| 20260906124645 | 68 | 55 | 2.0 | 11.0 | 0.00 | 0.00 | 0.00 | 84 | 1014.1 |
| 20260906124145 | 68 | 45 | 4.0 | 11.0 | 0.00 | 0.00 | 0.00 | 84 | 1013.9 |
| 20260906123645 | 68 | 54 | 2.0 | 11.0 | 0.00 | 0.00 | 0.00 | 85 | 1014.0 |
| 20260906123144 | 68 | 40 | 2.0 | 11.0 | 0.00 | 0.00 | 0.00 | 85 | 1013.8 |
| 20260906122643 | 67 | 55 | 3.0 | 11.0 | 0.00 | 0.00 | 0.00 | 85 | 1013.5 |
| 20260906122142 | 67 | 208 | 1.0 | 11.0 | 0.00 | 0.00 | 0.00 | 86 | 1013.2 |
| 20260906121641 | 67 | 63 | 1.0 | 11.0 | 0.00 | 0.00 | 0.00 | 86 | 1013.7 |
| 20260906121140 | 67 | 36 | 2.0 | 11.0 | 0.00 | 0.00 | 0.00 | 86 | 1013.3 |
| 20260906120639 | 67 | 84 | 1.0 | 11.0 | 0.00 | 0.00 | 0.00 | 86 | 1013.1 |
| 20260906120138 | 66 | 55 | 2.0 | 11.0 | 0.00 | 0.00 | 0.00 | 86 | 1013.3 |
| 20260906115638 | 66 | 41 | 1.0 | 11.0 | 0.00 | 0.00 | 0.00 | 86 | 1013.2 |
| 20260906115138 | 66 | 57 | 2.0 | 11.0 | 0.00 | 0.00 | 0.00 | 86 | 1013.2 |
| 20260906114637 | 66 | 54 | 4.0 | 11.0 | 0.00 | 0.00 | 0.00 | 86 | 1013.4 |
| 20260906114136 | 66 | 89 | 1.0 | 11.0 | 0.00 | 0.00 | 0.00 | 86 | 1013.0 |
| 20260906113635 | 66 | 49 | 3.0 | 11.0 | 0.00 | 0.00 | 0.00 | 86 | 1013.1 |
| 20260906113134 | 66 | 55 | 3.0 | 11.0 | 0.00 | 0.00 | 0.00 | 85 | 1012.7 |
| 20260906112634 | 66 | 49 | 4.0 | 11.0 | 0.00 | 0.00 | 0.00 | 85 | 1012.8 |
| 20260906112134 | 66 | 64 | 3.0 | 11.0 | 0.00 | 0.00 | 0.00 | 85 | 1012.8 |
| 20260906111634 | 66 | 57 | 3.0 | 11.0 | 0.00 | 0.00 | 0.00 | 85 | 1012.8 |
| 20260906111134 | 66 | 58 | 3.0 | 11.0 | 0.00 | 0.00 | 0.00 | 85 | 1012.6 |
| 20260906110634 | 66 | 60 | 3.0 | 11.0 | 0.00 | 0.00 | 0.00 | 85 | 1012.8 |
| 20260906105617 | 66 | 66 | 1.0 | 11.0 | 0.00 | 0.00 | 0.00 | 84 | 1012.7 |
| 20260906105116 | 66 | 61 | 3.0 | 11.0 | 0.00 | 0.00 | 0.00 | 84 | 1012.8 |
| 20260906104616 | 66 | 43 | 3.0 | 11.0 | 0.00 | 0.00 | 0.00 | 84 | 1012.8 |
| 20260906104116 | 66 | 54 | 4.0 | 11.0 | 0.00 | 0.00 | 0.00 | 84 | 1012.5 |
| 20260906103615 | 66 | 53 | 3.0 | 11.0 | 0.00 | 0.00 | 0.00 | 84 | 1012.7 |
| 20260906103114 | 66 | 86 | 2.0 | 11.0 | 0.00 | 0.00 | 0.00 | 84 | 1012.5 |
| 20260906102614 | 66 | 91 | 1.0 | 11.0 | 0.00 | 0.00 | 0.00 | 84 | 1012.3 |
| 20260906101558 | 66 | 45 | 4.0 | 11.0 | 0.00 | 0.00 | 0.00 | 84 | 1012.3 |
| 20260906101057 | 66 | 31 | 4.0 | 11.0 | 0.00 | 0.00 | 0.00 | 84 | 1012.5 |
| 20260906100557 | 66 | 89 | 2.0 | 11.0 | 0.00 | 0.00 | 0.00 | 83 | 1012.3 |
| 20260906100057 | 66 | 52 | 4.0 | 11.0 | 0.00 | 0.00 | 0.00 | 83 | 1012.2 |
| 20260906095556 | 66 | 31 | 3.0 | 11.0 | 0.00 | 0.00 | 0.00 | 83 | 1012.0 |
| 20260906095055 | 67 | 29 | 2.0 | 11.0 | 0.00 | 0.00 | 0.00 | 83 | 1012.5 |
| 20260906094040 | 67 | 73 | 3.0 | 11.0 | 0.00 | 0.00 | 0.00 | 82 | 1012.1 |
| 20260906093024 | 67 | 43 | 2.0 | 11.0 | 0.00 | 0.00 | 0.00 | 82 | 1011.9 |
| 20260906092524 | 67 | 16 | 2.0 | 11.0 | 0.00 | 0.00 | 0.00 | 82 | 1012.5 |
| 20260906092024 | 67 | 163 | 2.0 | 11.0 | 0.00 | 0.00 | 0.00 | 82 | 1012.1 |
| 20260906085937 | 68 | 62 | 3.0 | 11.0 | 0.00 | 0.00 | 0.00 | 82 | 1012.4 |
| 20260906085436 | 68 | 60 | 2.0 | 11.0 | 0.00 | 0.00 | 0.00 | 82 | 1012.2 |
| 20260906084935 | 68 | 244 | 1.0 | 11.0 | 0.00 | 0.00 | 0.00 | 82 | 1012.1 |
| 20260906084435 | 68 | 196 | 1.0 | 11.0 | 0.00 | 0.00 | 0.00 | 82 | 1012.2 |
| 20260906082904 | 68 | 45 | 2.0 | 11.0 | 0.00 | 0.00 | 0.00 | 83 | 1012.0 |
| 20260906082403 | 68 | 48 | 3.0 | 11.0 | 0.00 | 0.00 | 0.00 | 82 | 1011.9 |
| 20260906081904 | 69 | 53 | 3.0 | 11.0 | 0.00 | 0.00 | 0.00 | 82 | 1011.9 |
| 20260906080847 | 69 | 54 | 4.0 | 11.0 | 0.00 | 0.00 | 0.00 | 83 | 1012.1 |
| 20260906080347 | 69 | 334 | 1.0 | 11.0 | 0.00 | 0.00 | 0.00 | 83 | 1011.8 |
| 20260906075847 | 69 | 19 | 2.0 | 11.0 | 0.00 | 0.00 | 0.00 | 83 | 1011.8 |
| 20260906075346 | 69 | 109 | 2.0 | 11.0 | 0.00 | 0.00 | 0.00 | 83 | 1012.0 |
| 20260906074846 | 69 | 66 | 3.0 | 11.0 | 0.00 | 0.00 | 0.00 | 83 | 1012.4 |
| 20260906073830 | 70 | 47 | 2.0 | 11.0 | 0.00 | 0.00 | 0.00 | 83 | 1012.0 |
| 20260906073330 | 70 | 51 | 2.0 | 11.0 | 0.00 | 0.00 | 0.00 | 83 | 1012.1 |
| 20260906072314 | 70 | 52 | 3.0 | 11.0 | 0.00 | 0.00 | 0.00 | 82 | 1011.6 |
| 20260906071813 | 70 | 44 | 2.0 | 11.0 | 0.00 | 0.00 | 0.00 | 82 | 1011.9 |
| 20260906071313 | 70 | 138 | 1.0 | 11.0 | 0.00 | 0.00 | 0.00 | 82 | 1011.9 |
| 20260906070813 | 71 | 60 | 2.0 | 11.0 | 0.00 | 0.00 | 0.00 | 82 | 1011.9 |
| 20260906070313 | 71 | 68 | 4.0 | 11.0 | 0.00 | 0.00 | 0.00 | 82 | 1011.9 |
| 20260906065813 | 71 | 131 | 2.0 | 11.0 | 0.00 | 0.00 | 0.00 | 82 | 1011.8 |
| 20260906064758 | 71 | 59 | 3.0 | 11.0 | 0.00 | 0.00 | 0.00 | 82 | 1011.8 |
| 20260906064258 | 72 | 59 | 3.0 | 11.0 | 0.00 | 0.00 | 0.00 | 84 | 1012.3 |
| 20260906063757 | 72 | 108 | 3.0 | 11.0 | 0.00 | 0.00 | 0.00 | 85 | 1011.8 |
| 20260906063255 | 72 | 57 | 2.0 | 11.0 | 0.00 | 0.00 | 0.00 | 87 | 1012.1 |
| 20260906062755 | 73 | 47 | 4.0 | 11.0 | 0.00 | 0.00 | 0.00 | 88 | 1011.9 |
| 20260906062254 | 73 | 30 | 4.0 | 11.0 | 0.00 | 0.00 | 0.00 | 90 | 1011.9 |
| 20260906061753 | 73 | 20 | 3.0 | 11.0 | 0.00 | 0.00 | 0.00 | 92 | 1011.7 |
| 20260906061252 | 73 | 18 | 4.0 | 11.0 | 0.00 | 0.00 | 0.00 | 92 | 1011.9 |
| 20260906055720 | 73 | 33 | 2.0 | 11.0 | 0.00 | 0.00 | 0.00 | 92 | 1011.8 |
| 20260906055218 | 73 | 262 | 1.0 | 11.0 | 0.00 | 0.00 | 0.00 | 92 | 1011.7 |
| 20260906054718 | 73 | 355 | 0.0 | 11.0 | 0.00 | 0.00 | 0.00 | 92 | 1011.5 |
| 20260906053701 | 74 | 279 | 2.0 | 11.0 | 0.00 | 0.00 | 0.00 | 92 | 1011.3 |
| 20260906052645 | 74 | 45 | 1.0 | 11.0 | 0.00 | 0.00 | 0.00 | 92 | 1011.4 |
| 20260906052144 | 74 | 12 | 2.0 | 11.0 | 0.00 | 0.00 | 0.00 | 92 | 1011.4 |
| 20260906051643 | 74 | 66 | 1.0 | 11.0 | 0.00 | 0.00 | 0.00 | 92 | 1011.5 |
| 20260906051143 | 74 | 4 | 2.0 | 11.0 | 0.00 | 0.00 | 0.00 | 91 | 1011.3 |
| 20260906050643 | 74 | 43 | 2.0 | 11.0 | 0.00 | 0.00 | 0.00 | 91 | 1011.6 |
| 20260906050143 | 74 | 341 | 2.0 | 11.0 | 0.00 | 0.00 | 0.00 | 91 | 1011.9 |
| 20260906045641 | 75 | 40 | 2.0 | 11.0 | 0.00 | 0.00 | 0.00 | 91 | 1011.4 |
| 20260906045140 | 75 | 34 | 2.0 | 11.0 | 0.00 | 0.00 | 0.00 | 91 | 1011.6 |
| 20260906044641 | 75 | 28 | 1.0 | 11.0 | 0.00 | 0.00 | 0.00 | 91 | 1011.5 |
| 20260906044141 | 75 | 292 | 1.0 | 11.0 | 0.00 | 0.00 | 0.00 | 91 | 1011.5 |
| 20260906043641 | 75 | 14 | 2.0 | 11.0 | 0.00 | 0.00 | 0.00 | 91 | 1011.3 |
| 20260906043140 | 75 | 19 | 2.0 | 11.0 | 0.00 | 0.00 | 0.00 | 90 | 1011.7 |
| 20260906042123 | 75 | 6 | 2.0 | 11.0 | 0.00 | 0.00 | 0.00 | 90 | 1011.3 |
| 20260906041622 | 75 | 55 | 2.0 | 11.0 | 0.00 | 0.00 | 0.00 | 90 | 1011.1 |
| 20260906041122 | 75 | 22 | 1.0 | 11.0 | 0.00 | 0.00 | 0.00 | 90 | 1011.3 |
| 20260906040621 | 76 | 47 | 2.0 | 11.0 | 0.00 | 0.00 | 0.00 | 90 | 1011.0 |
| 20260906040121 | 76 | 203 | 1.0 | 11.0 | 0.00 | 0.00 | 0.00 | 89 | 1011.2 |
| 20260906035105 | 76 | 45 | 2.0 | 11.0 | 0.00 | 0.00 | 0.00 | 89 | 1011.2 |
| 20260906034605 | 76 | 223 | 1.0 | 11.0 | 0.00 | 0.00 | 0.00 | 89 | 1011.2 |
| 20260906033549 | 76 | 40 | 5.0 | 11.0 | 0.00 | 0.00 | 0.00 | 89 | 1011.1 |
| 20260906033048 | 76 | 57 | 3.0 | 11.0 | 0.00 | 0.00 | 0.04 | 89 | 1011.1 |
| 20260906032548 | 76 | 35 | 4.0 | 11.0 | 0.00 | 0.00 | 0.04 | 89 | 1011.1 |
| 20260906030500 | 77 | 100 | 2.0 | 11.0 | 0.00 | 0.00 | 0.04 | 89 | 1011.2 |
| 20260906030001 | 77 | 44 | 3.0 | 11.0 | 0.00 | 0.00 | 0.04 | 89 | 1010.7 |
| 20260906025500 | 77 | 39 | 4.0 | 11.0 | 0.00 | 0.00 | 0.04 | 89 | 1010.9 |
| 20260906025001 | 77 | 41 | 4.0 | 11.0 | 0.00 | 0.00 | 0.04 | 89 | 1011.0 |
| 20260906024501 | 77 | 40 | 2.0 | 11.0 | 0.00 | 0.00 | 0.04 | 89 | 1011.1 |
| 20260906024001 | 77 | 43 | 5.0 | 11.0 | 0.00 | 0.00 | 0.04 | 89 | 1011.0 |
| 20260906022945 | 77 | 53 | 4.0 | 11.0 | 0.00 | 0.00 | 0.04 | 89 | 1011.2 |
| 20260906022445 | 77 | 45 | 3.0 | 11.0 | 0.00 | 0.00 | 0.04 | 89 | 1011.2 |
| 20260906021944 | 77 | 313 | 2.0 | 11.0 | 0.00 | 0.00 | 0.04 | 88 | 1010.8 |
| 20260906021444 | 77 | 48 | 3.0 | 11.0 | 0.00 | 0.00 | 0.04 | 88 | 1010.7 |
| 20260906020428 | 77 | 39 | 4.0 | 11.0 | 0.00 | 0.00 | 0.04 | 87 | 1010.7 |
| 20260906015928 | 77 | 53 | 4.0 | 11.0 | 0.00 | 0.00 | 0.04 | 87 | 1010.4 |
| 20260906015428 | 77 | 44 | 5.0 | 11.0 | 0.00 | 0.00 | 0.04 | 86 | 1010.5 |
| 20260906014413 | 78 | 18 | 3.0 | 12.0 | 0.00 | 0.00 | 0.04 | 84 | 1010.2 |
| 20260906013913 | 78 | 57 | 3.0 | 12.0 | 0.00 | 0.00 | 0.04 | 83 | 1010.1 |
| 20260906013413 | 78 | 51 | 5.0 | 12.0 | 0.00 | 0.00 | 0.04 | 81 | 1010.1 |
| 20260906012357 | 78 | 63 | 4.0 | 12.0 | 0.00 | 0.00 | 0.04 | 79 | 1010.1 |
| 20260906011856 | 78 | 136 | 1.0 | 12.0 | 0.00 | 0.00 | 0.04 | 78 | 1010.0 |
| 20260906011356 | 78 | 80 | 1.0 | 12.0 | 0.00 | 0.00 | 0.04 | 78 | 1009.9 |
| 20260906010855 | 78 | 44 | 1.0 | 12.0 | 0.00 | 0.00 | 0.04 | 78 | 1010.0 |
| 20260906010354 | 78 | 10 | 1.0 | 12.0 | 0.00 | 0.00 | 0.04 | 78 | 1009.7 |
| 20260906005854 | 78 | 2 | 2.0 | 12.0 | 0.00 | 0.00 | 0.04 | 77 | 1009.7 |
| 20260906005354 | 79 | 17 | 2.0 | 12.0 | 0.00 | 0.00 | 0.04 | 77 | 1009.9 |
| 20260906003823 | 79 | 20 | 2.0 | 12.0 | 0.00 | 0.00 | 0.04 | 77 | 1009.5 |
| 20260906003322 | 79 | 55 | 1.0 | 12.0 | 0.00 | 0.00 | 0.04 | 77 | 1009.5 |
| 20260906002822 | 79 | 71 | 0.0 | 12.0 | 0.00 | 0.00 | 0.04 | 76 | 1009.3 |
| 20260906002321 | 79 | 11 | 3.0 | 12.0 | 0.00 | 0.00 | 0.04 | 76 | 1009.1 |
| 20260906001305 | 80 | 51 | 2.0 | 12.0 | 0.00 | 0.00 | 0.04 | 75 | 1009.2 |
| 20260906000804 | 80 | 31 | 1.0 | 12.0 | 0.00 | 0.00 | 0.04 | 74 | 1009.1 |
| 20260906000304 | 80 | 43 | 1.0 | 12.0 | 0.00 | 0.00 | 0.04 | 74 | 1009.2 |
| 20260905235248 | 80 | 100 | 2.0 | 12.0 | 0.00 | 0.00 | 0.04 | 73 | 1009.2 |
| 20260905234233 | 80 | 75 | 1.0 | 12.0 | 0.00 | 0.00 | 0.04 | 74 | 1009.1 |
| 20260905233732 | 81 | 34 | 3.0 | 12.0 | 0.00 | 0.00 | 0.04 | 73 | 1009.0 |
| 20260905233231 | 81 | 14 | 2.0 | 12.0 | 0.00 | 0.00 | 0.04 | 73 | 1009.4 |
| 20260905232730 | 81 | 29 | 2.0 | 12.0 | 0.00 | 0.00 | 0.04 | 74 | 1008.2 |
| 20260905231714 | 81 | 32 | 3.0 | 12.0 | 0.00 | 0.00 | 0.04 | 73 | 1008.4 |
| 20260905231213 | 82 | 85 | 2.0 | 12.0 | 0.00 | 0.00 | 0.04 | 74 | 1009.3 |
| 20260905230712 | 83 | 60 | 4.0 | 14.0 | 0.00 | 0.00 | 0.04 | 72 | 1009.1 |
| 20260905230212 | 84 | 30 | 4.0 | 15.0 | 0.00 | 0.00 | 0.04 | 71 | 1009.5 |
| 20260905225712 | 86 | 43 | 5.0 | 15.0 | 0.00 | 0.00 | 0.04 | 67 | 1009.7 |
| 20260905225211 | 89 | 19 | 7.0 | 16.0 | 0.00 | 0.00 | 0.04 | 64 | 1009.4 |
| 20260905224710 | 91 | 44 | 3.0 | 16.0 | 0.00 | 0.00 | 0.04 | 63 | 1010.0 |
| 20260905224209 | 91 | 13 | 3.0 | 11.0 | 0.00 | 0.00 | 0.04 | 63 | 1009.4 |
| 20260905223709 | 91 | 311 | 2.0 | 11.0 | 0.00 | 0.00 | 0.04 | 64 | 1009.5 |
| 20260905223209 | 91 | 309 | 3.0 | 11.0 | 0.00 | 0.00 | 0.04 | 64 | 1009.4 |
| 20260905222709 | 91 | 290 | 1.0 | 11.0 | 0.00 | 0.00 | 0.04 | 63 | 1009.7 |
| 20260905222209 | 91 | 35 | 2.0 | 11.0 | 0.00 | 0.00 | 0.04 | 63 | 1009.9 |
| 20260905221154 | 92 | 97 | 2.0 | 11.0 | 0.00 | 0.00 | 0.04 | 63 | 1009.4 |
| 20260905220653 | 91 | 315 | 3.0 | 11.0 | 0.00 | 0.00 | 0.04 | 63 | 1009.7 |
| 20260905220152 | 91 | 296 | 3.0 | 11.0 | 0.00 | 0.00 | 0.04 | 63 | 1009.7 |
| 20260905215651 | 91 | 310 | 2.0 | 11.0 | 0.00 | 0.00 | 0.04 | 63 | 1009.2 |
| 20260905214634 | 91 | 257 | 2.0 | 11.0 | 0.00 | 0.00 | 0.04 | 62 | 1009.0 |
| 20260905214134 | 91 | 261 | 2.0 | 11.0 | 0.00 | 0.00 | 0.04 | 61 | 1008.8 |
| 20260905213634 | 91 | 279 | 3.0 | 11.0 | 0.00 | 0.00 | 0.04 | 61 | 1009.1 |
| 20260905213134 | 91 | 259 | 2.0 | 11.0 | 0.00 | 0.00 | 0.04 | 61 | 1008.9 |
| 20260905211602 | 92 | 299 | 4.0 | 11.0 | 0.00 | 0.00 | 0.04 | 59 | 1008.8 |
| 20260905211101 | 93 | 290 | 4.0 | 11.0 | 0.00 | 0.00 | 0.04 | 58 | 1008.8 |
| 20260905210601 | 92 | 276 | 3.0 | 11.0 | 0.00 | 0.00 | 0.04 | 59 | 1008.7 |
| 20260905210100 | 93 | 298 | 3.0 | 11.0 | 0.00 | 0.00 | 0.04 | 58 | 1009.0 |
| 20260905205559 | 93 | 287 | 4.0 | 11.0 | 0.00 | 0.00 | 0.04 | 58 | 1009.5 |
| 20260905204542 | 93 | 249 | 3.0 | 11.0 | 0.00 | 0.00 | 0.04 | 56 | 1009.3 |
| 20260905204042 | 93 | 284 | 4.0 | 11.0 | 0.00 | 0.00 | 0.04 | 56 | 1009.5 |
| 20260905203542 | 94 | 301 | 3.0 | 11.0 | 0.00 | 0.00 | 0.04 | 56 | 1009.5 |
| 20260905203041 | 94 | 272 | 1.0 | 11.0 | 0.00 | 0.00 | 0.04 | 55 | 1009.5 |
| 20260905202541 | 94 | 310 | 4.0 | 11.0 | 0.00 | 0.00 | 0.04 | 55 | 1009.8 |
| 20260905202041 | 95 | 255 | 3.0 | 11.0 | 0.00 | 0.00 | 0.04 | 54 | 1009.7 |
| 20260905201541 | 95 | 315 | 3.0 | 11.0 | 0.00 | 0.00 | 0.04 | 55 | 1009.7 |
| 20260905201040 | 95 | 282 | 2.0 | 11.0 | 0.00 | 0.00 | 0.04 | 54 | 1010.3 |
| 20260905200540 | 95 | 295 | 4.0 | 11.0 | 0.00 | 0.00 | 0.04 | 53 | 1009.9 |
| 20260905200039 | 96 | 317 | 2.0 | 11.0 | 0.00 | 0.00 | 0.04 | 53 | 1009.8 |
| 20260905195023 | 96 | 232 | 3.0 | 11.0 | 0.00 | 0.00 | 0.04 | 52 | 1010.0 |
| 20260905194523 | 96 | 216 | 1.0 | 11.0 | 0.00 | 0.00 | 0.04 | 52 | 1010.2 |
| 20260905194022 | 96 | 245 | 1.0 | 11.0 | 0.00 | 0.00 | 0.04 | 51 | 1010.0 |
| 20260905193522 | 96 | 209 | 4.0 | 11.0 | 0.00 | 0.00 | 0.04 | 52 | 1009.8 |
| 20260905193022 | 96 | 183 | 1.0 | 11.0 | 0.00 | 0.00 | 0.04 | 52 | 1010.1 |
| 20260905192522 | 95 | 233 | 2.0 | 11.0 | 0.00 | 0.00 | 0.04 | 52 | 1010.1 |
| 20260905192022 | 95 | 253 | 2.0 | 11.0 | 0.00 | 0.00 | 0.04 | 52 | 1010.2 |
| 20260905191522 | 95 | 210 | 4.0 | 11.0 | 0.00 | 0.00 | 0.04 | 53 | 1010.5 |
| 20260905191021 | 95 | 219 | 4.0 | 11.0 | 0.00 | 0.00 | 0.04 | 53 | 1010.4 |
| 20260905190521 | 95 | 233 | 4.0 | 11.0 | 0.00 | 0.00 | 0.04 | 53 | 1010.7 |
| 20260905190021 | 95 | 258 | 1.0 | 11.0 | 0.00 | 0.00 | 0.04 | 53 | 1010.6 |
| 20260905185521 | 95 | 208 | 4.0 | 11.0 | 0.00 | 0.00 | 0.04 | 53 | 1010.4 |